Temp
10 10 10 10 10 10 9 9 9 9 8 7 7 7 8 7 6 6 6 6 6 6 6 6 7 7 7 7 8 7 8 7 7 8 7 7 7 7 7 7 7 7 7
10 10 9 10 9 10 10 9 9 9 8 7 7 7 7 6 5 6 6 6 5 6 6 7 7 7 7 7 7 8 8 7 7 7 8 8 8 8 8 7 7 7 7
9 9 9 9 9 9 9 9 9 8 8 7 7 7 7 6 6 4 4 5 5 6 6 6 6 6 6 7 7 7 7 7 7 7 7 7 7 7 7 7 7 7 7
9 9 8 9 9 9 9 9 9 9 8 7 7 7 6 7 7 3 3 5 5 5 6 6 6 6 6 6 7 7 7 7 7 7 7 7 7 7 7 7 7 7 7
8 8 8 9 9 9 8 8 8 8 7 7 6 6 6 5 5 5 4 4 5 6 6 6 5 5 6 6 6 6 6 6 7 6 7 7 7 7 7 7 7 7 7
8 8 8 8 8 8 8 8 8 8 7 7 6 6 5 5 4 4 4 4 5 5 6 5 6 6 7 6 6 6 6 6 6 6 6 7 7 7 7 7 7 7 7
8 7 7 7 7 7 7 7 7 7 7 7 6 7 5 4 5 5 4 4 4 4 5 5 5 5 5 6 5 6 6 5 5 6 6 6 6 6 6 7 7 7 7
6 6 6 6 6 6 6 6 6 6 6 6 6 6 5 5 4 4 4 5 5 5 4 5 5 4 5 5 4 5 5 5 4 5 5 5 6 6 6 6 7 7 7
5 5 5 5 5 5 5 5 5 6 6 6 6 5 5 4 4 4 4 4 4 4 4 4 4 4 4 5 4 5 5 5 4 4 5 5 6 5 5 6 6 6 6
5 5 5 5 5 5 5 5 5 5 5 5 5 5 5 4 4 3 3 3 3 3 3 3 4 4 4 4 4 4 5 5 5 4 4 4 5 5 4 4 6 6 6
5 4 4 4 4 4 4 4 4 4 4 5 4 4 3 3 3 2 3 3 3 2 2 2 2 3 4 4 4 3 4 5 5 5 4 4 4 5 4 4 5 5 5
4 4 4 4 4 4 4 4 3 4 4 4 3 3 3 3 2 2 2 2 2 2 2 2 2 2 3 3 3 3 4 4 4 4 4 3 4 5 4 2 4 5 5
4 4 4 4 4 4 4 3 3 3 3 3 2 2 2 2 1 1 2 1 0 1 1 2 2 1 1 2 2 2 2 3 2 2 4 2 3 4 4 4 4 4 5
4 4 4 4 4 4 4 3 3 2 2 2 2 2 2 1 1 1 1 1 0 -0 0 0 -0 0 0 2 2 1 1 1 1 1 2 2 2 2 4 4 2 4 4
4 4 4 4 4 3 3 3 2 2 2 2 1 1 1 2 1 1 1 0 1 2 -0 0 1 -0 -0 0 1 1 1 1 1 2 1 1 1 2 3 4 2 3 4
4 3 3 3 3 3 3 2 2 2 2 2 2 2 1 1 1 1 1 1 0 1 0 0 -0 1 1 1 1 1 2 3 2 2 2 2 1 1 2 3 2 2 3
3 3 3 3 3 3 3 2 2 2 2 2 2 2 1 1 1 1 1 1 1 0 0 0 1 1 1 2 3 3 4 3 3 3 3 3 1 1 2 2 2 2 2
3 3 3 3 3 2 2 2 2 2 2 2 2 1 1 1 1 1 0 0 0 0 0 0 1 1 1 -0 1 2 2 2 3 2 3 2 2 2 0 1 1 2 2
3 3 3 3 3 2 2 2 2 2 1 1 1 1 0 0 0 -0 -0 0 0 1 1 1 0 0 1 1 1 1 2 1 1 2 2 2 1 0 1 -0 1 1 1
3 3 3 2 2 2 2 1 1 1 1 0 -0 -0 -1 -0 -0 -1 -1 -0 -0 -0 0 -0 -0 -0 0 0 1 1 1 1 1 1 2 1 2 1 0 0 -0 1 1
3 3 2 2 1 1 0 -0 -0 -1 -1 -1 -1 -1 -1 -1 -1 -1 -1 -1 -1 -1 -1 -1 -1 -1 -1 0 1 1 1 1 0 0 1 0 0 -0 -0 -1 -1 -0 1
3 3 2 1 1 1 0 -0 -1 -1 -2 -2 -2 -2 -2 -2 -2 -2 -2 -2 -2 -2 -2 -2 -1 -1 -1 -1 -1 -0 0 0 1 0 0 -0 -0 -1 -0 0 -0 -1 -0
3 3 2 2 1 1 0 -1 -2 -2 -2 -2 -2 -2 -3 -3 -3 -3 -3 -3 -3 -3 -3 -3 -3 -3 -3 -3 -2 -2 -2 -1 0 0 0 -1 -1 -0 -1 0 -0 -1 -0
2 2 2 2 0 -0 -1 -1 -1 -2 -3 -3 -3 -3 -3 -4 -4 -4 -4 -4 -4 -4 -4 -4 -5 -5 -5 -5 -5 -4 -3 -3 -2 -1 -1 -1 -1 -1 -1 -1 -1 -1 -1
1 1 1 -0 -0 -1 -1 -1 -2 -3 -3 -4 -4 -4 -4 -5 -5 -5 -5 -6 -7 -6 -6 -6 -6 -6 -6 -6 -6 -6 -6 -4 -4 -4 -1 -2 -2 -3 -2 -2 -1 -1 -1
0 -0 -0 -1 -1 -2 -2 -3 -3 -4 -4 -4 -5 -5 -6 -6 -6 -7 -7 -8 -8 -9 -9 -9 -8 -8 -7 -6 -7 -7 -7 -7 -6 -5 -5 -3 -2 -3 -3 -2 -2 -2 -1
Height
3161 3161 3162 3163 3164 3165 3164 3165 3164 3164 3164 3164 3165 3163 3165 3165 3168 3168 3167 3167 3167 3167 3166 3166 3166 3167 3168 3169 3169 3171 3170 3172 3173 3175 3175 3177 3177 3178 3177 3178 3178 3179 3179
3161 3161 3162 3163 3164 3165 3164 3163 3165 3164 3163 3167 3166 3165 3165 3164 3169 3169 3168 3167 3167 3166 3166 3164 3166 3167 3167 3168 3168 3168 3170 3172 3173 3173 3174 3176 3176 3177 3177 3178 3177 3178 3179
3162 3162 3163 3165 3164 3164 3164 3164 3163 3164 3164 3165 3166 3164 3164 3166 3165 3158 3166 3167 3165 3164 3165 3163 3165 3166 3168 3167 3167 3166 3169 3170 3172 3172 3172 3173 3175 3175 3176 3178 3177 3178 3178
3162 3162 3163 3163 3164 3163 3163 3163 3164 3162 3160 3163 3164 3164 3160 3160 3163 3150 3155 3166 3164 3164 3164 3163 3163 3166 3166 3165 3165 3166 3167 3169 3171 3171 3171 3172 3173 3174 3175 3176 3176 3177 3177
3162 3161 3161 3161 3164 3161 3164 3162 3162 3161 3159 3159 3160 3162 3159 3161 3158 3156 3152 3163 3165 3165 3163 3162 3162 3162 3162 3164 3165 3165 3167 3167 3169 3169 3169 3169 3170 3172 3173 3174 3175 3175 3175
3160 3160 3161 3161 3162 3161 3161 3161 3159 3158 3156 3155 3158 3159 3158 3160 3161 3161 3158 3159 3160 3160 3157 3158 3157 3158 3160 3163 3162 3163 3166 3165 3167 3168 3168 3167 3168 3170 3170 3172 3172 3172 3173
3159 3159 3160 3159 3159 3157 3157 3157 3157 3156 3155 3154 3153 3153 3153 3153 3158 3160 3160 3156 3157 3157 3155 3156 3156 3156 3155 3157 3159 3160 3161 3164 3163 3164 3165 3165 3165 3166 3167 3168 3170 3171 3172
3159 3158 3159 3158 3157 3156 3155 3155 3155 3153 3151 3150 3149 3148 3147 3149 3149 3153 3155 3155 3154 3152 3152 3152 3153 3153 3151 3151 3153 3155 3155 3158 3160 3160 3160 3161 3161 3163 3164 3165 3167 3168 3169
3158 3158 3157 3157 3155 3153 3153 3152 3150 3149 3148 3146 3145 3144 3143 3143 3145 3145 3146 3147 3148 3148 3148 3146 3147 3147 3148 3146 3147 3149 3149 3151 3154 3156 3155 3155 3156 3158 3160 3161 3162 3164 3166
3157 3156 3155 3154 3152 3150 3149 3147 3145 3143 3143 3142 3141 3139 3139 3138 3138 3140 3140 3141 3142 3144 3143 3142 3142 3143 3143 3143 3144 3145 3145 3147 3147 3150 3152 3150 3151 3152 3155 3156 3157 3160 3162
3154 3153 3152 3150 3148 3146 3144 3142 3139 3138 3136 3136 3136 3135 3134 3134 3134 3133 3132 3133 3134 3136 3136 3136 3135 3135 3137 3137 3137 3138 3140 3140 3139 3144 3146 3146 3145 3146 3149 3152 3152 3154 3156
3150 3149 3148 3146 3143 3141 3139 3136 3134 3132 3131 3131 3130 3130 3130 3129 3128 3128 3129 3128 3127 3127 3128 3130 3131 3130 3130 3132 3131 3132 3133 3134 3135 3136 3140 3140 3141 3140 3142 3145 3146 3148 3151
3145 3144 3143 3141 3139 3136 3134 3132 3130 3130 3129 3128 3126 3125 3125 3124 3125 3123 3124 3120 3114 3118 3107 3116 3111 3120 3122 3123 3123 3123 3124 3125 3126 3131 3132 3133 3134 3135 3135 3138 3141 3142 3145
3141 3140 3138 3136 3134 3132 3131 3129 3128 3127 3126 3125 3124 3122 3121 3120 3118 3117 3116 3108 3099 3104 3105 3102 3099 3102 3108 3111 3115 3115 3116 3117 3119 3120 3120 3124 3125 3128 3129 3131 3135 3137 3139
3137 3135 3134 3132 3131 3129 3128 3127 3126 3125 3123 3122 3121 3119 3118 3117 3116 3114 3112 3110 3105 3098 3103 3102 3102 3102 3100 3104 3110 3109 3110 3111 3112 3114 3114 3115 3117 3120 3123 3124 3127 3130 3134
3133 3131 3130 3129 3127 3126 3125 3124 3122 3121 3120 3119 3118 3116 3114 3112 3111 3110 3108 3105 3101 3098 3095 3093 3096 3097 3101 3100 3101 3102 3102 3103 3103 3104 3105 3106 3110 3111 3113 3116 3119 3123 3126
3130 3129 3127 3126 3125 3124 3122 3121 3119 3117 3116 3115 3113 3112 3110 3108 3105 3103 3102 3100 3098 3094 3091 3091 3091 3087 3086 3088 3094 3096 3096 3094 3094 3094 3095 3095 3099 3102 3103 3106 3109 3113 3118
3127 3126 3124 3122 3121 3119 3117 3116 3115 3114 3112 3110 3108 3105 3104 3102 3101 3098 3095 3094 3092 3090 3089 3088 3084 3082 3081 3083 3082 3084 3087 3086 3087 3087 3085 3085 3085 3089 3093 3097 3101 3105 3108
3124 3122 3119 3117 3116 3114 3113 3111 3109 3107 3105 3103 3101 3099 3097 3095 3094 3092 3089 3087 3086 3084 3081 3079 3077 3077 3076 3077 3076 3075 3077 3078 3079 3078 3077 3077 3077 3078 3086 3088 3092 3097 3099
3119 3117 3114 3112 3110 3108 3106 3104 3102 3100 3097 3095 3094 3091 3090 3087 3085 3084 3083 3080 3077 3075 3073 3072 3070 3069 3069 3068 3069 3069 3068 3069 3069 3068 3067 3067 3070 3070 3074 3076 3083 3085 3089
3115 3112 3108 3106 3103 3101 3099 3097 3095 3092 3089 3087 3085 3084 3082 3079 3077 3076 3074 3072 3069 3065 3064 3063 3062 3060 3058 3057 3057 3056 3057 3059 3060 3059 3059 3057 3059 3062 3064 3066 3069 3075 3079
3106 3103 3100 3097 3095 3093 3091 3089 3087 3084 3083 3081 3078 3076 3074 3072 3070 3067 3065 3062 3060 3059 3055 3053 3051 3050 3048 3046 3046 3044 3046 3049 3049 3048 3048 3050 3051 3052 3054 3056 3057 3063 3069
3099 3096 3093 3090 3088 3086 3085 3083 3082 3079 3077 3074 3070 3067 3061 3061 3059 3057 3055 3052 3049 3046 3045 3043 3040 3038 3037 3036 3034 3035 3033 3034 3035 3037 3038 3038 3040 3040 3043 3046 3047 3050 3056
3094 3091 3088 3085 3082 3080 3080 3078 3076 3073 3071 3067 3065 3061 3058 3053 3050 3046 3043 3041 3037 3035 3032 3031 3030 3028 3026 3025 3024 3023 3023 3022 3021 3021 3025 3026 3027 3029 3032 3033 3036 3038 3042
3088 3083 3080 3077 3075 3072 3070 3068 3067 3066 3063 3059 3055 3051 3047 3044 3041 3037 3032 3029 3026 3023 3021 3018 3018 3018 3018 3017 3015 3014 3012 3010 3008 3007 3008 3014 3013 3017 3019 3022 3024 3028 3029
3080 3078 3075 3071 3067 3063 3061 3060 3059 3056 3053 3049 3044 3041 3036 3032 3029 3025 3021 3017 3014 3012 3009 3007 3006 3004 3004 3004 3003 3002 3001 2997 2995 2993 2992 2996 2999 3003 3006 3008 3012 3015 3017
Wind_Speed
5 6 5 7 9 8 9 9 8 8 7 8 8 8 9 10 11 12 10 10 10 9 8 9 10 9 9 10 10 10 9 8 9 9 9 9 9 10 10 9 8 7 7
4 6 6 5 5 11 11 11 12 11 9 8 11 11 12 13 13 10 13 12 9 11 10 10 9 10 10 10 10 11 11 10 10 10 10 10 9 9 8 8 8 7 6
4 2 1 1 1 3 9 20 18 15 15 11 13 13 13 14 18 16 12 13 13 11 12 12 12 11 12 12 12 12 12 12 11 11 11 10 10 10 10 9 7 7 6
2 3 2 4 9 9 8 10 16 24 17 17 17 15 22 23 36 40 14 15 15 12 12 13 14 14 14 14 13 14 15 14 13 13 13 13 12 12 12 11 9 8 6
7 6 12 12 15 13 11 12 16 20 19 16 17 19 22 21 23 19 12 14 14 15 16 15 16 17 17 16 15 15 16 14 15 15 15 15 15 15 15 14 13 10 7
5 7 7 9 9 8 9 14 12 18 21 18 21 19 20 18 20 18 19 21 22 26 24 22 20 18 12 16 15 15 17 15 15 16 17 17 18 17 17 18 16 13 10
6 5 8 7 5 9 11 15 14 16 18 19 22 24 21 19 20 23 21 22 24 25 25 26 23 20 16 20 19 18 17 19 17 18 18 19 21 20 20 21 20 16 14
1 3 4 4 2 2 5 8 12 13 17 21 23 26 26 24 21 19 23 25 25 25 23 21 27 26 24 23 21 21 20 21 21 21 19 20 22 23 22 22 22 21 18
3 3 3 3 9 14 17 18 18 17 17 19 24 26 27 24 25 24 23 23 22 22 20 21 27 27 27 25 25 27 27 25 23 25 22 20 21 22 24 25 24 24 22
3 2 6 10 13 17 22 22 23 24 20 18 18 25 29 30 28 28 27 25 24 24 23 24 26 27 29 29 31 32 28 29 31 31 29 24 20 23 24 25 27 27 25
7 9 11 14 19 22 22 23 22 20 20 21 20 18 21 24 30 33 34 33 31 24 25 27 29 31 34 36 35 33 34 29 29 36 33 31 24 24 25 26 27 28 28
10 12 14 19 23 23 23 21 19 18 20 20 21 21 25 28 25 31 37 35 32 36 29 25 31 31 33 36 37 36 39 42 40 39 40 34 28 27 27 25 29 29 31
14 17 21 21 22 20 16 13 15 16 19 20 21 23 24 24 25 26 39 54 33 45 16 29 24 30 35 36 38 35 36 42 42 49 45 36 30 30 30 31 31 33 35
20 22 20 20 15 11 10 12 13 15 18 20 20 21 23 27 28 27 28 31 29 45 30 32 29 11 39 24 31 32 30 36 34 38 34 41 31 33 34 33 30 35 36
19 19 15 10 12 9 9 10 12 14 16 17 17 19 21 24 24 24 24 26 26 26 39 41 32 38 29 16 27 31 34 30 33 32 35 39 36 36 37 37 33 35 37
17 12 10 12 10 10 11 12 14 16 18 19 20 21 22 23 25 26 25 25 24 27 22 16 15 20 26 32 33 29 30 39 38 39 38 37 41 41 41 40 36 37 38
13 13 15 14 12 12 12 13 14 16 18 19 21 22 22 23 26 28 28 28 27 27 26 26 23 19 17 12 20 26 34 33 36 41 39 45 36 48 46 43 42 39 38
15 18 18 18 17 17 17 19 20 21 22 24 26 27 27 28 29 32 34 34 32 31 31 29 26 24 25 28 23 27 28 36 34 39 41 42 35 37 43 44 42 41 41
21 21 23 23 23 23 24 25 26 27 28 29 29 29 28 29 32 35 36 34 32 33 32 29 26 24 25 29 30 30 32 33 35 35 38 35 38 32 52 49 43 44 43
25 25 27 27 28 28 28 29 30 31 32 32 32 31 30 32 35 38 34 33 35 34 33 31 30 30 30 31 31 33 35 34 33 34 34 33 39 39 52 49 49 46 47
26 27 29 30 30 31 30 30 31 33 33 33 33 32 33 35 36 36 37 36 37 38 37 36 35 34 33 35 34 35 35 36 37 40 37 33 33 34 43 43 55 47 49
29 31 32 32 33 33 33 33 33 33 34 35 36 38 38 36 36 39 41 40 38 36 38 37 36 35 36 37 36 38 39 39 40 41 37 37 37 34 37 49 44 47 50
27 29 31 34 34 35 35 34 33 33 34 36 39 40 43 40 42 44 42 41 41 40 36 33 32 32 34 35 37 38 39 42 43 42 40 35 36 39 38 37 46 50 55
32 32 30 31 33 33 31 31 30 31 32 36 38 40 40 44 44 43 42 41 39 37 36 35 31 30 32 33 35 38 40 43 45 47 44 45 45 39 39 39 37 42 53
29 26 24 27 31 32 29 29 28 31 35 38 41 41 41 41 42 42 42 42 41 40 39 38 36 33 31 34 36 39 42 45 46 48 49 48 50 41 43 39 38 48 54
27 31 35 35 34 33 32 31 31 34 38 40 40 39 42 42 43 44 45 45 45 44 43 43 42 42 39 38 38 38 42 45 47 48 52 52 52 52 44 44 45 46 47
Wind_Direction
140 120 106 46 12 341 336 313 281 271 258 217 228 236 248 248 241 241 232 219 217 209 210 214 218 216 204 202 195 202 198 194 188 194 190 193 189 188 181 182 181 183 182
103 88 83 7 317 340 354 341 314 288 281 257 238 232 243 250 240 254 243 239 225 209 213 214 219 237 221 209 200 194 197 203 200 201 203 202 198 197 198 198 196 193 200
107 103 56 286 36 297 307 304 302 309 312 282 250 239 260 262 250 229 253 252 248 226 221 222 219 219 230 212 208 204 203 209 215 212 216 221 221 212 208 209 206 209 206
87 59 59 332 315 320 312 290 276 280 298 281 274 251 248 246 270 271 221 253 249 249 251 252 225 229 234 226 220 217 211 217 222 220 223 226 233 228 218 217 224 229 235
43 26 345 322 309 315 296 283 281 282 296 287 287 271 260 254 263 276 269 245 263 269 251 252 248 235 234 238 233 233 231 220 226 230 226 228 235 237 229 225 229 233 236
11 360 321 303 297 297 284 277 295 293 296 299 288 285 274 261 259 256 240 232 232 233 237 239 233 230 228 249 245 242 251 240 238 239 238 234 237 234 238 234 233 233 238
324 310 290 277 262 256 253 258 267 269 274 277 278 278 278 275 257 255 256 251 246 245 240 243 237 232 221 233 246 245 251 259 252 248 247 244 241 239 239 237 237 237 239
331 12 9 333 277 253 308 314 321 296 287 289 285 279 276 274 273 257 254 254 249 247 242 244 235 251 226 225 235 236 240 255 266 256 249 251 246 246 241 241 237 234 235
345 7 13 319 318 323 325 322 314 304 289 284 275 275 279 280 278 271 267 264 262 257 252 244 244 243 237 232 232 233 235 245 262 267 255 250 250 248 244 239 237 234 233
317 301 300 308 314 317 317 316 314 312 301 294 279 272 276 274 270 264 259 258 258 260 255 243 240 238 244 254 248 240 240 253 250 262 264 249 247 249 245 239 235 232 230
287 292 301 308 313 314 312 310 308 304 300 296 293 292 288 287 271 269 260 250 245 245 250 250 243 240 245 250 250 246 242 256 250 253 260 259 240 241 245 240 235 231 229
284 286 291 300 307 308 307 303 301 299 302 303 304 302 301 300 283 270 264 256 239 240 239 247 245 241 243 245 247 246 247 251 254 243 252 256 248 237 238 238 236 229 227
282 287 293 300 304 304 309 301 302 302 304 307 307 305 306 307 304 290 270 252 235 229 229 233 248 242 243 242 247 251 253 253 250 243 251 247 246 243 238 239 236 230 225
286 293 299 303 299 292 311 306 299 299 303 302 300 301 306 305 306 313 309 308 302 261 244 259 281 225 229 241 244 251 268 270 274 265 254 245 243 243 237 235 236 234 225
294 300 303 300 310 309 304 304 303 302 301 299 296 298 298 296 300 303 311 313 309 325 251 277 290 267 287 264 256 257 257 271 274 283 279 248 254 241 240 233 232 235 232
290 286 291 296 293 284 290 297 297 297 294 293 295 300 305 304 301 301 302 302 310 309 309 295 282 270 297 253 279 280 272 269 272 282 277 270 264 251 234 233 228 232 233
280 282 289 292 287 279 283 288 294 295 294 294 294 297 304 308 310 311 313 311 306 307 310 310 301 297 284 248 258 254 270 274 272 276 281 267 266 253 232 229 227 227 230
280 286 286 287 287 286 284 286 287 289 291 292 293 296 298 303 307 310 310 307 305 302 296 297 294 287 277 267 266 268 270 267 274 276 278 273 258 266 235 230 228 225 227
284 284 283 284 284 283 284 283 284 285 285 286 287 288 292 296 301 306 307 304 300 298 295 295 289 283 277 272 269 270 270 270 272 269 270 274 263 256 237 238 229 228 226
282 283 280 279 278 278 278 279 279 281 281 282 284 286 289 293 301 306 302 301 301 298 295 292 288 284 279 274 270 267 265 267 271 269 270 270 267 257 238 238 227 228 227
284 286 283 279 278 279 280 280 280 279 279 281 283 283 289 296 302 301 299 297 295 293 292 289 286 284 280 277 275 269 271 269 265 266 267 263 266 268 246 237 228 228 231
288 287 282 277 275 275 277 279 278 278 279 281 283 287 294 297 295 295 294 293 290 287 287 285 284 282 280 278 276 275 271 267 266 265 269 261 262 256 257 258 240 230 232
294 289 283 280 278 277 278 279 277 276 277 279 285 294 299 297 295 294 292 290 291 289 286 286 285 280 275 274 272 270 269 265 265 263 263 261 258 255 254 257 247 233 232
297 295 296 288 284 283 284 281 277 272 275 281 286 289 288 291 291 292 293 292 291 293 292 291 287 282 277 272 269 268 264 265 263 261 256 258 258 255 254 250 252 247 228
295 291 293 294 293 288 286 276 270 271 276 283 287 290 292 290 290 293 299 302 303 300 298 296 292 285 274 269 266 266 267 265 263 262 257 249 252 252 252 257 250 242 230
290 289 294 295 291 286 290 281 280 282 289 291 291 291 291 295 299 302 303 304 302 301 300 297 294 291 285 276 270 263 263 264 266 266 264 256 249 244 245 253 253 244 249